Regional Weather Roundup
Issued by NWS Charleston, SC

Current Version | Previous Version | Text Only | Print | Product List | Glossary Off
Versions: 1 2 3 4 5 6 7 8 9 10 11 12 13 14 15 16 17 18 19 20 21 22 23 24 25 26 27 28 29 30 31 32 33 34 35 36 37 38 39 40 41 42 43 44 45 46 47 48 49 50
000 ASUS42 KCHS 212327 RWRCHS REGIONAL WEATHER ROUNDUP NATIONAL WEATHER SERVICE CHARLESTON SC 600 PM EST SAT JAN 21 2017 NOTE: "FAIR" INDICATES FEW OR NO CLOUDS BELOW 12,000 FEET WITH NO SIGNIFICANT WEATHER AND/OR OBSTRUCTIONS TO VISIBILITY. NOT ALL STATIONS ARE QUALITY CONTROLLED. USE DATA WITH CAUTION... ESPECIALLY DEWPOINT OBSERVATIONS. SCZ027-030-031-034>040-042>050-220000- ...SOUTHEAST SOUTH CAROLINA... CITY SKY/WX TMP DP RH WIND PRES REMARKS N CHARLESTON LGT RAIN 63 59 87 SW13G22 29.75R WATERFRONT PRK N/A 63 61 93 SW8 29.74R MOUNT PLEASANT LGT RAIN 63 61 94 SW7 29.76R JOHNS ISLAND MOCLDY 61 61 100 SW6 29.76F PINOPOLIS N/A 64 63 94 SW15 29.63 MONCKS CORNER LGT RAIN 61 59 94 SW5 29.74R SUMMERVILLE LGT RAIN N/A N/A N/A S6 29.74S BEAUFORT MCAS CLOUDY 62 60 93 S6 29.76S BEAUFORT ARPT LGT RAIN 61 59 94 S7 29.76R HILTON HEAD IS CLOUDY 61 61 100 S7 29.77F WALTERBORO DRIZZLE 59 59 100 S9 29.73F ALLENDALE CLOUDY 61 59 94 VRB6G17 29.69R ...SOUTHERN MIDLANDS AND PEE DEE... CITY SKY/WX TMP DP RH WIND PRES REMARKS GEORGETOWN LGT RAIN 64 64 100 S21G26 29.74R KINGSTREE HVY RAIN 64 63 94 CALM 29.73R ORANGEBURG LGT RAIN 64 60 87 SE15 29.65F BARNWELL FAIR 64 63 94 SW7 29.69R AIKEN FAIR 61 55 82 S8 29.68R MANNING RAIN 64 63 94 E6 29.71F COLUMBIA CLOUDY 66 63 90 S8 29.63R SUMTER CLOUDY 64 64 100 SE16G31 29.60R FLORENCE RAIN 64 64 100 SE13 29.69F FOG MYRTLE BEACH RAIN 63 59 88 S9 29.76F VSB 1/2 N MYRTLE BEACH FOG 63 63 100 S7 29.74F VSB 1/4 $$ GAZ063-065-086>088-099>101-113>116-118-119-134>141-150-220000- ...SOUTHEAST GEORGIA... CITY SKY/WX TMP DP RH WIND PRES REMARKS SAVANNAH ARPT LGT RAIN 61 58 90 SW7 29.77F HUNTER AAF CLOUDY 60 60 100 S8 29.75F FORT STEWART HVY RAIN 61 59 92 CALM 29.77R STATESBORO RAIN 62 32 31 S14G23 29.71F SYLVANIA RAIN N/A N/A N/A S13G25 29.72F CLAXTON RAIN N/A N/A N/A SE6 29.74F ...CSRA...CENTRAL AND FAR SOUTHEAST GEORGIA... CITY SKY/WX TMP DP RH WIND PRES REMARKS THOMSON CLOUDY 64 61 91 W7 29.69R AUGUSTA-BUSH N/A 65 58 78 S6 29.65R AUGUSTA-DANIEL MOCLDY 65 55 70 SW8 29.65R SWAINSBORO FAIR 61 59 94 SW5 29.69R VIDALIA MOCLDY 63 63 100 S13 29.66F EASTMAN FAIR 63 62 98 SW3 29.71R HAZLEHURST FAIR 62 62 100 S8 29.68F ALMA LGT RAIN 60 60 100 SE9 29.71F WAYCROSS CLOUDY 64 64 100 S13 29.75F JESUP RAIN 63 59 88 CALM 29.79F BAXLEY MOCLDY 61 61 100 SE8 29.71F BRUNSWICK RAIN 63 63 100 SW5 29.83S SAINT SIMONS LGT RAIN 62 61 96 SW6 29.83S FOG $$ SCZ027-028-034-036>038-045-046-048>050-GAZ119-141-220000- ...LAKE AND SUPPLEMENTAL COASTAL OBSERVATIONS... STATION/POSITION TIME TEMP WIND PRES WAVE SWELL AIR SEA DIR/SP/G HT/PER HT/PER/DIR (UTC) (F) (DEG/KT/KT) (MB) (FT/S) (FT/S/D) WINYAH BAY 2245 60 100/ 2 1006.0F LAKE MURRAY 2320 62 160/ 4/ 6 1003.0R ACE BASIN NERRS 2245 60 CALM 1008.0S FORT PULASKI 2300 60 58 170/ 6/ 9 1008.4 SAPELO ISLAND 2300 62 CALM 1010.0 $$ ANZ835-935-AMZ111-154-330-350-352-354-370-450-454-472-220000- ...C-MAN AND BUOY OBSERVATIONS... STATION/POSITION TIME TEMP WIND PRES WAVE SWELL AIR SEA DIR/SP/G HT/PER HT/PER/DIR (UTC) (F) (DEG/KT/KT) (MB) (FT/S) (FT/S/D) BUOY 41004 2250 72 66 190/ 16/ 19 1005.9F 2/11 2/100/11 BUOY 41008 2250 62 62 320/ 10/ 14 1009.6R 2/12 2/ 70/12 FOLLY BEACH CMAN 2300 59 240/ 5/ 8 1008.5R CAPERS NEARSHORE 2308 58 57 230/ 16/ 21 1006.9R FRIPP NEARSHORE 2308 60 59 200/ 10/ 14 1006.9F STATION/POSITION TIME TEMP WIND PRES WAVE SWELL AIR SEA DIR/SP/G HT/PER HT/PER/DIR (UTC) (F) (DEG/KT/KT) (MB) (FT/S) (FT/S/D) 5E ST. MARYS GA 2300 64 N/A 3/13 2/ 80/13 FRYING PAN BUOY 2310 71 71 170/ 10/ 10 1008.0 BUOY 41025 2250 71 74 160/ 10/ 14 1009.1F 4/10 3/ 70/10 CAPE LOOKOUT NC 2300 60 40/ 9/ 11 1008.1F BUOY 41002 2250 70 71 130/ 12/ 14 1010.9S 5/ 6 3/250/ 6 BUOY 41010 NOT AVBL ST AUGUSTINE FL 2300 78 64 200/ 7/ 9 1009.1S $$

USA.gov is the U.S. government's official web portal to all federal, state and local government web resources and services.